Temp
12 12 12 12 11 12 12 12 12 13 14 14 15 15 15 15 15 14 14 14 14 14
10 11 10 10 10 10 10 10 11 11 12 12 13 13 14 13 13 13 13 13 12 12
9 9 9 9 9 9 9 9 9 10 10 10 11 11 11 11 11 12 12 12 12 11
8 7 7 7 7 7 7 8 8 8 8 9 9 10 10 10 10 10 10 9 9 8
6 6 6 6 5 6 6 6 6 7 7 7 7 8 8 8 7 6 6 6 6 6
4 4 4 4 4 4 4 4 4 5 5 5 5 6 7 6 6 5 4 4 4 3
3 3 3 3 3 3 2 3 3 3 3 3 3 3 3 3 3 3 3 2 2 2
2 2 2 1 2 1 1 1 1 1 1 1 1 1 2 2 2 1 1 1 1 1
1 1 1 1 1 0 0 1 0 1 1 1 1 1 1 1 1 1 0 0 0 0
1 1 0 0 -0 -0 -0 -0 0 0 0 0 0 0 1 1 0 0 -0 -1 -1 -0
0 0 0 -0 -1 -1 -1 -1 -1 0 -0 -0 -1 -1 -1 -0 -0 -1 -1 -1 -1 -1
0 -0 -0 -1 -1 -2 -1 -1 -1 -1 -1 -1 -0 -1 -1 -1 -1 -1 -1 -2 -2 -2
0 0 -1 -2 -1 -1 -1 -1 -1 -1 -1 -1 -1 -1 -2 -1 -2 -2 -2 -2 -2 -3
1 1 -1 -0 -0 -0 -0 -0 -1 -1 -1 -1 -1 -2 -2 -2 -2 -2 -3 -3 -3 -3
Height
799 798 797 797 796 795 794 793 791 790 789 788 787 787 787 787 789 790 790 791 789 788
799 798 797 796 795 794 794 792 791 789 788 786 785 784 784 784 785 786 787 787 786 786
799 798 797 796 795 794 793 792 790 788 786 786 784 784 783 783 783 783 783 783 784 783
798 797 796 795 794 793 792 790 789 788 787 784 783 783 782 783 781 781 781 781 781 780
798 797 796 795 793 792 791 791 790 788 786 785 784 783 783 782 780 780 780 781 781 780
798 797 796 794 794 793 793 793 790 788 787 786 784 784 783 783 781 781 782 782 781 781
798 798 797 796 796 796 795 793 789 789 789 787 787 787 786 782 782 783 784 784 783 783
798 799 799 799 798 798 796 794 794 793 793 791 791 790 787 785 786 787 787 787 786 786
800 800 800 800 799 798 797 798 798 797 796 795 795 794 791 790 790 792 791 790 789 790
801 802 801 801 801 802 802 801 801 802 801 798 799 798 797 796 795 795 794 794 793 792
802 803 803 803 804 804 803 805 803 804 805 802 802 802 800 800 799 799 798 797 796 795
803 804 804 806 806 805 805 806 805 806 807 806 805 805 803 802 802 801 800 800 798 798
803 804 804 807 807 806 806 807 808 809 809 809 807 808 806 805 804 803 802 801 800 799
802 804 806 807 806 807 807 809 810 810 809 809 808 808 808 807 805 804 802 801 800 800
Wind_Speed
5 4 5 4 3 4 5 7 10 10 10 10 9 9 9 11 12 14 15 17 19 22
4 4 5 4 5 6 7 8 10 11 10 9 8 7 7 7 8 9 12 15 17 17
6 6 5 5 6 7 7 8 9 9 9 8 8 7 6 6 7 10 12 16 18 19
6 6 6 6 7 7 7 8 8 9 9 9 9 8 8 7 9 9 10 12 10 7
6 6 7 7 8 7 7 7 8 8 8 9 9 9 9 9 8 8 9 8 7 6
6 7 8 9 9 8 7 7 8 9 10 10 10 9 8 7 9 9 9 8 9 9
7 8 8 8 8 7 9 11 13 14 13 13 12 10 9 10 11 10 11 12 12 13
6 5 5 8 9 9 11 13 15 16 17 18 17 15 13 15 15 15 15 15 16 17
3 5 7 9 10 12 14 15 16 18 18 19 17 15 15 14 15 14 14 14 13 11
4 7 9 10 12 13 14 15 16 15 16 18 16 14 13 12 13 13 13 12 11 11
9 10 11 11 11 11 13 14 15 14 13 15 14 12 12 12 12 12 12 11 10 9
10 11 12 11 10 11 14 15 15 14 12 12 12 8 8 8 8 8 8 8 9 9
12 11 10 11 10 11 14 14 11 10 9 9 11 9 9 7 7 7 6 6 6 5
13 12 11 12 12 10 8 8 6 5 5 6 6 7 7 8 9 8 8 7 8 7
Wind_Direction
69 60 57 52 38 10 346 335 328 324 321 321 312 288 275 278 278 286 292 297 297 286
43 36 35 23 9 1 346 340 333 327 325 317 318 313 289 296 302 298 307 310 310 309
40 30 19 360 357 356 353 352 351 346 341 342 336 324 328 322 310 315 318 308 302 300
28 21 12 9 6 3 0 3 7 10 8 7 3 354 351 347 343 337 324 313 312 313
35 27 23 22 21 20 24 20 21 27 31 31 29 26 20 17 16 16 20 15 8 13
39 32 39 41 40 42 47 45 46 42 40 35 28 19 11 24 30 34 39 38 36 34
45 40 39 52 51 56 65 67 62 57 54 50 44 45 49 56 58 59 61 60 60 57
49 53 66 76 79 74 73 72 68 62 58 58 52 51 64 73 78 80 81 80 78 73
65 96 98 93 90 91 87 86 84 79 74 70 61 57 62 76 81 81 79 75 74 77
122 119 109 103 103 93 95 98 90 84 81 76 66 59 59 65 74 72 66 64 62 62
137 125 117 116 109 104 106 102 95 88 78 73 65 64 63 65 67 68 64 53 47 47
143 135 132 124 111 113 110 109 98 92 86 77 68 53 46 46 47 45 46 48 41 23
150 141 136 138 131 119 119 111 104 95 81 71 69 51 46 37 27 18 14 6 6 18
153 159 154 137 125 115 116 122 118 98 77 67 60 52 34 23 14 13 356 349 350 343